Location: Stilling
(56.0622°N, 9.9882°E)
Time: 12:30:07
(UTC+00:00)

MOS 1-B Rocket - Pass Details

Date: 13 July 2020
Orbit: 890 x 1606 km, 99.1° (Epoch: 06 August)

Event Time Altitude Azimuth Distance (km) Brightness Sun altitude
Rises 22:06:52 0° 16° (NNE) 4,358 8.4 -10.5°
Reaches altitude 10° 22:09:49 10° 19° (NNE) 3,280 7.6 -10.6°
Maximum altitude 22:17:14 67° 102° (ESE) 1,213 4.4 -10.9°
Enters shadow 22:23:04 12° 185° (S) 2,635 5.7 -11.2°
